Location: Drignac
(45.1667°N, 2.0333°E)
Time: 23:09:19
(UTC+00:00)

STARLINK-1138 - Pass Details

Date: 29 March 2020
Orbit: 548 x 551 km, 53.0° (Epoch: 27 May)

Event Time Altitude Azimuth Distance (km) Brightness Sun altitude
Rises 19:16:34 0° 235° (SW) 2,710 7.7 -11.2°
Reaches altitude 10° 19:18:47 10° 235° (SW) 1,820 6.8 -11.6°
Maximum altitude 19:22:56 87° 149° (SSE) 556 3.6 -12.3°
Drops below altitude 10° 19:27:06 10° 58° (ENE) 1,830 5.9 -13.0°
Enters shadow 19:27:26 - 58° (ENE) 1,961 6.1 -13.0°
